Regional Weather Roundup
Issued by NWS

Home | Current Version | Previous Version | Graphics & Text | Print | Product List | Glossary On
Versions: 1 2 3 4 5 6 7 8 9 10 11 12 13 14 15 16 17 18 19 20 21 22 23 24 25 26 27 28 29 30 31 32 33 34 35 36 37 38 39 40 41 42 43 44 45 46 47 48 49 50
000
ASUS43 KDTX 161401
RWRMI
MICHIGAN HOURLY REGIONAL WEATHER ROUNDUP
NATIONAL WEATHER SERVICE DETROIT/PONTIAC MI
1000 AM EDT MON OCT 16 2017

NOTE: "FAIR" INDICATES FEW OR NO CLOUDS BELOW 12,000 FEET WITH NO
SIGNIFICANT WEATHER AND/OR OBSTRUCTION TO VISIBILITY.

MIZ047>049-052>055-059>063-066>070-074>076-081>083-161500-
SOUTHEAST LOWER MICHIGAN

CITY           SKY/WX    TMP DP  RH WIND       PRES   REMARKS
ADRIAN         PTSUNNY   47  37  68 NE8       30.31R
ALMA           SUNNY     46  39  75 CALM      30.30R
ANN ARBOR      MOSUNNY   46  38  73 N6        30.29R
BAD AXE        CLOUDY    44  35  70 W3        30.28S
CARO           PTSUNNY   45  32  59 CALM      30.28S
DETROIT CITY   CLOUDY    46  35  65 N8        30.30R
DETROIT        PTSUNNY   47  39  74 N5        30.30R
FLINT          MOSUNNY   47  37  68 W3        30.30R
GROSSE ILE     CLOUDY    47  37  66 N7        30.29R
HILLSDALE      MOSUNNY   46  36  66 CALM      30.29R
HOWELL         MOSUNNY   45  37  73 NW3       30.29R

CITY           SKY/WX    TMP DP  RH WIND       PRES   REMARKS
JACKSON        PTSUNNY   47  38  71 CALM      30.30R
LAMBERTVILLE   PTSUNNY   49  41  72 N5        30.30R
LANSING        SUNNY     47  38  71 E3        30.30R
LAPEER         FAIR      44  38  79 CALM      30.29S
MASON          MOSUNNY   46  38  75 CALM      30.30R
MONROE         CLOUDY    48  39  71 NW6       30.30R
MT. CLEMENS    MOSUNNY   46  37  70 NW9       30.27R
PONTIAC        MOSUNNY   45  37  73 N7        30.28R
PORT HOPE        N/A     47  32  56 VRB5      30.26R
PORT HURON     CLOUDY    45  36  70 NW7       30.28R
TRI CITIES     MOSUNNY   45  36  70 SW5       30.30R
MIDLAND        CLOUDY    46  36  69 CALM      30.28F
TROY           CLOUDY    45  37  72 NW5       30.31R
SAGINAW HB     SUNNY     45  36  70 NW3       30.29S
$$
MIZ043>046-050>051-056>058-064>065-071>073-077>080-161500-
SOUTHWEST LOWER MICHIGAN

CITY           SKY/WX    TMP DP  RH WIND       PRES   REMARKS
BATTLE CREEK   CLOUDY    48  41  76 SE3       30.30R
BENTON HARBOR  MOSUNNY   53  40  61 W12       30.30R
BIG RAPIDS     SUNNY     45  39  80 SW3       30.27R
COLDWATER      PTSUNNY   47  44  89 CALM      30.30R
FREMONT        CLOUDY    43  42  95 S3        30.28R
HOLLAND        CLOUDY    48  45  89 SE8       30.30R
GRAND RAPIDS   PTSUNNY   46  41  82 SE5       30.29R
IONIA          PTSUNNY   48  38  68 S3        30.28S
LUDINGTON      CLOUDY    43  40  88 S5        30.26S
MARSHALL       MOSUNNY   46  41  80 CALM      30.30R
MOUNT PLEASANT MOSUNNY   47  39  72 S3        30.28R
MUSKEGON       CLOUDY    46  43  89 E6        30.29R
SOUTH HAVEN    CLOUDY    54  44  70 W7        30.29R
$$
MIZ016>042-161500-
NORTHERN LOWER MICHIGAN

CITY           SKY/WX    TMP DP  RH WIND       PRES   REMARKS
ALPENA         SUNNY     42  34  73 SW6       30.27S
BEAVER ISLAND  CLOUDY    45  41  85 S7        30.20S
BELLAIRE       CLOUDY    42  37  84 S6        30.25S
CADILLAC       MOSUNNY   43  39  87 SW5       30.24S
CHARLEVOIX     PTSUNNY   42  36  79 S8        30.26S
FRANKFORT      CLOUDY    45  42  89 CALM      30.24S
GAYLORD        SUNNY     39  32  76 S8        30.23S WCI  33
GRAYLING       MOSUNNY   39  35  83 CALM      30.26S
HARBOR SPRINGS SUNNY     41  34  76 CALM      30.24S
HOUGHTON LAKE  CLOUDY    42  34  73 S6        30.27R
MANISTEE       LGT RAIN  43  40  89 CALM      30.26R
OSCODA         SUNNY     44  32  62 W9        30.27S
PELLSTON       SUNNY     39  35  86 SE5       30.23S
ROGERS CITY    SUNNY     42  32  68 S8        30.27R
TRAVERSE CITY  MOSUNNY   45  39  79 S6        30.24S
$$
MIZ007>008-015-161500-
EASTERN UPPER MICHIGAN

CITY           SKY/WX    TMP DP  RH WIND       PRES   REMARKS
KINROSS        SUNNY     40  34  79 S8        30.21S WCI  34
MACKINAC ISLAN SUNNY     44  35  69 S9G16     30.22S
NEWBERRY       SUNNY     42  37  84 SW6       30.18S
S. S. MARIE    SUNNY     40  33  76 E5        30.20S
$$
MIZ004>006-011>014-085-161500-
CENTRAL UPPER MICHIGAN

CITY           SKY/WX    TMP DP  RH WIND       PRES   REMARKS
MANISTIQUE     SUNNY     44  36  73 W5        30.19S
MENOMINEE      SUNNY     40  37  89 VRB3      30.24R
$$
MIZ001>003-009>011-084-161500-
WESTERN UPPER MICHIGAN

CITY           SKY/WX    TMP DP  RH WIND       PRES   REMARKS
IRON MOUNTAIN  SUNNY     37  34  89 CALM      30.19S
HOUGHTON       SUNNY     45  40  82 SW9       30.12S
COPPER HARBOR    N/A     45  39  79 VRB3      30.11S
IRONWOOD       SUNNY     41  35  79 SW7       30.17R
$$

ABBREVIATIONS USED IN REMARKS
   TC - TEMPERATURE IN CELSIUS
  WCI - WIND CHILL INDEX
   HX - HEAT INDEX
  VSB - VISIBILITY





USA.gov is the U.S. government's official web portal to all federal, state and local government web resources and services.